Wind_Speed
15 14 14 12 10 8 7 6 7 10 13 15 18 21 24 25 27 28 28 29 30 31 32 32 31 32 32 32 31 31 30 30 29 29 30 30 31 32 32 32 32 32 32
16 15 14 14 12 9 7 6 5 5 7 10 13 15 18 21 23 25 26 28 29 31 32 33 33 32 32 33 33 33 32 31 30 29 29 28 29 30 29 28 29 30 30
20 18 17 16 15 12 10 8 7 5 5 6 8 11 13 16 19 21 24 26 28 30 32 32 32 32 32 33 33 34 33 32 31 30 29 29 28 28 27 27 27 28 28
22 20 19 18 17 15 13 11 10 8 6 5 6 8 11 14 17 19 21 23 26 28 30 31 32 32 32 32 33 33 32 31 31 30 30 28 27 27 27 27 27 26 25
22 21 20 19 18 17 16 14 12 10 9 7 6 7 9 11 14 16 19 21 23 25 27 29 30 31 31 31 30 30 30 30 30 29 29 28 27 27 27 25 24 23 23
23 22 21 21 20 19 18 16 14 13 11 10 9 9 9 11 13 15 17 19 21 22 23 25 26 27 28 29 29 28 28 28 27 26 26 25 25 24 23 23 22 20 20
23 22 22 21 21 20 19 18 16 15 13 12 11 11 11 11 12 13 15 16 18 19 20 22 23 25 26 26 26 25 26 25 24 22 21 20 20 20 19 18 18 18 18
22 22 22 22 22 21 21 20 18 17 17 16 15 14 13 12 12 12 13 14 15 17 18 20 21 22 22 23 23 23 22 21 21 20 19 17 16 16 15 15 15 15 15
23 22 22 22 22 22 22 21 20 19 19 19 18 16 15 14 13 12 12 13 14 15 16 17 17 18 19 20 20 20 20 18 18 17 17 16 15 15 15 14 13 13 12
24 23 23 23 23 23 23 23 22 21 21 20 19 18 17 15 13 11 10 10 11 13 14 14 15 16 16 17 18 18 18 18 18 17 16 15 13 13 12 12 12 11 10
24 24 23 23 23 23 24 24 23 23 22 22 21 20 19 17 14 11 8 7 8 9 10 12 13 15 15 16 17 17 17 18 18 17 16 14 13 12 10 10 10 9 8
23 24 24 24 24 24 24 25 25 24 24 23 22 21 20 19 16 12 8 5 3 5 7 9 11 14 15 16 16 15 15 17 16 15 14 13 12 11 10 9 8 8 7
22 23 24 24 24 24 25 25 25 25 25 24 24 23 22 20 18 14 10 6 3 3 5 8 11 13 15 16 16 16 15 14 14 13 13 12 11 10 9 8 7 7 7
20 22 23 23 24 24 25 25 25 25 26 25 24 24 24 23 20 17 13 10 8 8 8 9 11 13 15 16 16 15 16 15 14 13 12 11 10 9 9 9 8 7 7
19 20 21 22 24 24 24 25 25 25 26 26 25 25 24 24 23 21 18 16 14 13 13 13 13 14 15 16 16 15 14 14 13 13 12 11 10 9 9 8 8 7 7
17 18 20 21 22 23 24 24 25 25 25 26 26 25 25 25 24 23 20 19 18 17 17 16 16 16 16 16 16 15 14 14 13 12 11 11 10 9 9 8 8 7 6
15 16 17 19 20 21 22 23 23 24 24 25 25 25 25 25 25 24 23 21 20 19 19 18 17 16 16 16 15 14 14 13 12 12 11 11 10 10 9 8 7 6 6
14 15 15 16 18 19 20 21 22 22 22 23 23 24 24 24 24 24 24 22 21 20 19 18 17 16 15 15 15 14 14 13 13 12 11 11 10 9 8 7 7 6 5
13 13 14 15 15 16 17 19 19 20 20 21 21 22 22 22 22 22 22 22 21 20 18 17 16 16 15 15 14 14 14 13 13 12 11 10 10 9 8 7 7 6 5
12 12 12 13 13 14 15 16 16 17 18 18 18 19 19 20 21 21 20 20 20 19 18 17 17 16 15 15 14 14 13 12 11 11 10 9 9 8 7 6 6 5 5
11 11 11 11 11 12 12 13 13 14 15 15 16 16 16 17 17 18 18 18 17 17 17 16 15 14 14 13 13 12 12 11 10 10 9 8 8 7 6 5 5 4 4
12 11 11 11 10 10 10 10 11 11 11 12 12 13 13 13 14 14 14 14 15 15 14 14 14 13 13 12 12 11 11 10 9 9 8 7 6 5 5 4 4 3 3
14 13 12 11 10 10 10 9 9 9 9 9 9 9 9 10 10 10 10 10 10 10 10 10 10 10 9 9 8 8 8 7 7 6 6 5 4 4 4 3 3 4 4
17 16 15 14 12 12 11 10 9 9 8 8 7 7 7 6 6 6 6 6 6 6 6 6 6 6 6 6 5 5 5 5 4 4 4 4 4 4 4 4 5 6 7
20 19 18 17 16 14 13 12 11 10 10 9 8 7 7 6 5 5 4 3 2 1 1 1 1 2 2 3 3 3 3 4 4 4 5 5 6 6 7 7 8 9 10
24 22 21 20 19 18 17 16 14 13 12 12 11 10 9 9 8 8 7 7 6 6 5 5 5 5 6 6 6 7 7 8 8 8 9 9 10 10 11 11 12 13 14
Wind_Direction
10 9 7 3 357 349 337 314 278 255 249 245 242 240 237 238 240 240 240 238 238 239 239 240 241 242 242 241 242 244 246 248 250 254 255 256 258 260 261 262 261 262 263
22 20 18 15 12 10 1 348 328 293 263 251 246 244 242 242 243 243 243 242 241 240 240 240 242 242 243 243 244 246 248 250 252 254 257 259 261 261 263 262 264 264 263
29 28 28 27 27 25 21 16 4 344 312 283 260 253 249 248 248 247 245 244 244 243 242 243 244 244 244 245 246 248 249 251 253 255 256 258 260 261 261 266 267 265 264
31 32 32 31 30 30 28 24 18 11 355 325 291 270 261 258 256 253 250 247 246 246 245 245 244 245 246 247 248 249 251 251 253 255 255 256 259 260 261 264 263 263 262
30 31 31 31 29 29 27 24 21 17 10 356 331 303 284 273 265 260 256 251 248 247 246 246 246 245 246 248 249 250 250 251 251 253 253 255 257 258 259 259 259 258 257
29 29 29 29 28 27 25 23 19 17 12 0 345 326 306 292 280 271 265 258 251 249 248 246 246 246 245 245 247 247 247 248 248 249 249 250 251 252 253 253 252 250 250
26 27 26 26 26 24 23 20 18 15 9 2 351 338 324 310 294 281 271 264 254 249 249 247 245 244 242 243 242 242 243 244 246 244 244 247 246 244 245 241 241 243 244
24 25 24 23 23 22 21 19 17 14 9 3 355 346 336 324 309 293 279 267 256 249 247 248 245 239 237 236 237 239 238 238 237 236 236 236 234 232 229 228 232 234 236
23 23 22 21 20 19 18 17 15 13 10 6 1 355 345 333 321 307 291 273 259 250 246 245 241 233 228 227 227 229 229 225 222 220 222 225 226 224 222 221 219 219 223
23 22 21 20 18 17 16 16 14 13 10 8 5 1 355 346 335 320 303 284 263 250 243 237 230 222 216 214 212 214 214 213 211 209 209 209 209 209 209 209 211 213 217
22 22 21 19 18 18 17 17 16 14 12 11 8 5 2 358 352 341 323 296 271 250 235 225 217 211 208 201 198 200 202 203 203 203 204 205 205 204 202 203 203 206 212
22 22 21 20 19 18 18 18 17 16 15 14 12 10 8 6 5 3 357 339 285 232 214 207 199 192 189 186 186 186 189 193 193 194 194 191 192 193 194 197 201 206 212
21 21 21 20 20 19 19 19 19 19 18 18 18 18 17 16 17 20 26 34 54 141 162 166 170 171 171 170 170 170 171 177 180 179 177 177 182 187 192 196 202 207 211
18 19 21 21 21 21 21 21 21 21 22 23 25 25 26 28 30 36 45 56 74 100 121 135 144 147 155 158 159 162 164 165 167 170 172 175 181 186 191 195 200 202 204
16 17 18 20 21 22 22 23 23 25 26 28 30 32 34 36 40 45 53 63 76 93 105 118 127 131 137 145 151 152 154 157 160 164 168 170 175 181 187 189 190 191 192
13 15 17 19 20 22 23 24 25 27 29 31 34 37 39 42 45 49 57 65 76 87 98 108 115 121 131 137 141 144 147 149 152 157 162 167 170 171 171 172 177 181 184
6 9 12 16 18 21 23 25 27 29 32 34 36 39 43 46 49 54 60 67 76 85 93 100 107 112 120 125 130 135 140 144 148 151 154 156 159 162 164 167 172 176 181
1 4 7 11 14 18 21 24 27 30 33 36 38 41 45 49 52 56 61 67 74 82 90 96 101 106 111 118 122 127 134 138 142 146 149 151 153 155 157 160 166 175 183
352 357 2 6 9 13 17 21 25 29 33 36 39 42 46 50 54 57 61 67 73 80 86 93 98 103 107 110 115 121 127 131 133 137 142 145 148 151 155 159 166 173 180
341 346 352 358 3 7 12 17 21 26 31 34 38 42 45 50 54 58 62 66 71 77 84 90 95 100 105 108 111 116 120 125 128 132 138 142 146 150 154 161 169 176 184
325 331 337 343 351 358 4 9 14 20 25 31 35 39 43 47 52 57 62 67 71 75 80 86 91 97 101 105 109 114 119 124 129 133 138 142 146 151 157 164 170 178 190
307 314 320 325 332 339 349 357 2 8 14 21 27 33 38 42 48 53 59 65 71 76 81 85 89 93 98 103 108 112 117 122 127 132 136 140 145 154 162 169 179 198 229
289 294 300 307 313 319 325 334 344 352 359 4 11 19 26 33 39 46 53 61 67 73 79 85 91 96 101 106 111 116 121 128 134 139 145 152 160 170 183 200 224 250 270
277 280 284 288 293 298 304 309 316 323 332 341 347 353 360 8 17 26 36 46 58 68 75 83 92 100 108 115 123 131 139 147 157 169 180 193 204 217 230 244 259 271 279
269 271 273 276 279 283 287 291 295 299 304 309 314 318 321 323 326 331 336 342 350 2 30 86 123 143 156 165 175 186 195 204 213 221 226 230 238 246 255 263 271 277 282
263 265 266 268 271 273 276 279 282 284 287 289 292 295 296 297 296 295 294 291 288 282 275 267 260 255 250 246 244 243 244 245 246 248 251 253 257 262 267 272 276 280 284
Height
5772 5769 5766 5763 5761 5759 5758 5758 5758 5759 5760 5761 5764 5767 5770 5773 5776 5779 5782 5785 5789 5792 5797 5801 5804 5808 5811 5814 5818 5821 5825 5828 5831 5833 5835 5837 5839 5841 5843 5845 5847 5848 5849
5774 5771 5767 5764 5762 5760 5759 5758 5758 5757 5757 5758 5760 5762 5764 5767 5769 5772 5775 5778 5781 5785 5789 5792 5796 5799 5803 5806 5810 5813 5816 5819 5823 5825 5827 5829 5831 5833 5835 5837 5838 5840 5841
5777 5773 5770 5767 5764 5762 5760 5759 5758 5757 5757 5757 5758 5759 5761 5762 5764 5766 5768 5771 5774 5777 5781 5784 5788 5791 5795 5798 5802 5805 5808 5811 5814 5817 5819 5822 5824 5826 5828 5830 5831 5832 5833
5780 5777 5773 5770 5767 5765 5762 5761 5759 5758 5757 5756 5757 5757 5758 5758 5759 5761 5762 5764 5767 5770 5773 5776 5779 5783 5786 5790 5793 5796 5800 5803 5806 5809 5812 5814 5817 5818 5821 5823 5824 5825 5826
5784 5780 5777 5773 5770 5767 5765 5763 5760 5759 5757 5756 5756 5755 5755 5755 5755 5756 5757 5758 5760 5762 5765 5768 5771 5774 5777 5781 5784 5788 5791 5795 5798 5801 5804 5807 5809 5811 5814 5815 5817 5818 5820
5788 5784 5781 5777 5774 5770 5767 5765 5762 5760 5758 5756 5755 5754 5752 5752 5751 5751 5751 5752 5754 5756 5758 5760 5763 5766 5770 5773 5777 5780 5784 5787 5791 5794 5797 5800 5802 5804 5807 5809 5811 5813 5815
5792 5788 5784 5780 5777 5773 5770 5767 5764 5761 5759 5756 5754 5752 5750 5748 5746 5746 5745 5746 5747 5749 5751 5754 5756 5759 5762 5766 5769 5773 5777 5781 5784 5788 5791 5793 5796 5798 5801 5803 5805 5808 5810
5795 5791 5787 5783 5780 5776 5772 5769 5765 5762 5759 5756 5753 5750 5747 5745 5743 5741 5741 5741 5742 5743 5745 5747 5750 5753 5756 5760 5763 5767 5771 5775 5779 5782 5785 5788 5791 5794 5797 5799 5802 5804 5806
5798 5794 5790 5786 5782 5778 5774 5770 5767 5763 5759 5755 5752 5748 5745 5742 5739 5737 5736 5736 5736 5738 5739 5742 5744 5747 5751 5754 5758 5762 5766 5771 5774 5778 5781 5784 5787 5791 5793 5796 5799 5801 5803
5801 5797 5793 5789 5785 5781 5776 5772 5768 5764 5760 5755 5751 5747 5743 5739 5736 5733 5731 5731 5731 5732 5734 5737 5740 5743 5746 5750 5754 5758 5763 5767 5771 5775 5778 5782 5785 5788 5791 5794 5796 5799 5801
5805 5800 5796 5792 5787 5783 5779 5774 5769 5765 5760 5756 5751 5746 5742 5737 5733 5730 5728 5727 5727 5728 5730 5733 5736 5739 5743 5747 5751 5756 5760 5765 5769 5773 5776 5780 5783 5786 5789 5791 5794 5797 5799
5808 5803 5799 5795 5790 5786 5781 5776 5771 5766 5762 5757 5752 5747 5741 5736 5732 5728 5726 5725 5725 5726 5727 5730 5733 5737 5741 5745 5750 5754 5759 5763 5767 5771 5774 5778 5781 5785 5787 5790 5793 5795 5797
5811 5807 5802 5798 5793 5788 5784 5779 5774 5769 5763 5758 5753 5748 5742 5737 5732 5729 5726 5725 5724 5725 5727 5729 5733 5736 5740 5745 5749 5754 5758 5762 5766 5770 5774 5777 5781 5784 5786 5789 5791 5793 5795
5814 5810 5805 5801 5796 5791 5786 5782 5777 5772 5766 5761 5756 5751 5745 5740 5735 5731 5729 5727 5726 5727 5728 5731 5734 5737 5741 5746 5750 5754 5758 5763 5766 5770 5774 5777 5780 5783 5785 5788 5790 5792 5794
5816 5812 5808 5804 5799 5795 5790 5785 5780 5775 5770 5765 5760 5755 5750 5745 5741 5737 5734 5732 5731 5731 5732 5734 5737 5741 5744 5748 5752 5756 5760 5764 5767 5771 5774 5777 5780 5782 5785 5787 5789 5791 5793
5818 5815 5811 5807 5803 5798 5793 5789 5784 5779 5775 5770 5765 5760 5756 5751 5747 5743 5740 5738 5737 5737 5738 5740 5742 5745 5748 5751 5755 5759 5762 5765 5769 5772 5774 5777 5780 5782 5785 5787 5789 5791 5793
5820 5817 5813 5809 5806 5801 5797 5793 5788 5784 5779 5775 5771 5766 5762 5758 5754 5751 5748 5745 5744 5744 5745 5747 5748 5751 5753 5756 5758 5761 5764 5767 5770 5773 5775 5778 5781 5783 5785 5787 5789 5791 5792
5821 5818 5815 5811 5808 5804 5800 5796 5792 5788 5784 5780 5776 5772 5769 5765 5762 5758 5756 5754 5753 5752 5752 5753 5755 5756 5758 5760 5762 5765 5767 5770 5772 5775 5777 5779 5782 5784 5786 5788 5789 5791 5792
5821 5819 5816 5813 5810 5807 5803 5800 5796 5792 5789 5785 5782 5778 5775 5772 5769 5766 5764 5762 5760 5760 5760 5760 5761 5762 5763 5765 5767 5769 5771 5773 5775 5777 5779 5781 5783 5785 5787 5788 5790 5791 5792
5821 5818 5816 5814 5811 5808 5805 5802 5799 5796 5793 5790 5786 5783 5780 5778 5775 5773 5771 5769 5768 5767 5766 5766 5767 5768 5769 5770 5771 5773 5774 5776 5778 5780 5782 5783 5785 5787 5788 5789 5790 5792 5793
5819 5817 5815 5813 5811 5809 5806 5804 5801 5799 5796 5793 5790 5788 5785 5783 5781 5778 5777 5775 5774 5773 5772 5772 5772 5773 5773 5774 5775 5776 5778 5779 5781 5782 5784 5785 5786 5788 5789 5790 5791 5792 5792
5817 5815 5814 5812 5810 5808 5806 5804 5802 5800 5798 5796 5793 5791 5789 5787 5785 5783 5782 5780 5779 5778 5778 5777 5777 5777 5777 5778 5779 5780 5781 5782 5783 5784 5785 5787 5788 5789 5789 5790 5791 5792 5792
5813 5812 5811 5810 5808 5807 5805 5804 5802 5800 5799 5797 5795 5793 5791 5790 5788 5787 5785 5784 5783 5782 5782 5781 5781 5781 5781 5781 5782 5782 5783 5784 5785 5786 5787 5787 5788 5789 5789 5790 5790 5791 5791
5808 5808 5807 5806 5805 5804 5803 5802 5800 5799 5798 5797 5795 5794 5792 5791 5790 5789 5787 5786 5786 5785 5784 5784 5784 5783 5783 5784 5784 5784 5785 5785 5786 5786 5787 5787 5788 5788 5789 5789 5789 5789 5789
5802 5802 5802 5801 5801 5800 5799 5798 5797 5797 5796 5795 5794 5793 5792 5791 5790 5789 5788 5787 5786 5786 5785 5785 5785 5784 5784 5784 5784 5785 5785 5785 5785 5786 5786 5786 5787 5787 5787 5787 5787 5786 5786
5795 5795 5795 5795 5795 5795 5794 5794 5793 5793 5792 5791 5791 5790 5789 5789 5788 5787 5787 5786 5786 5785 5785 5784 5784 5784 5783 5783 5783 5783 5784 5784 5784 5784 5784 5784 5784 5784 5784 5784 5783 5783 5782